Dewpoint
66 65 65 66 66 66 65 65 67 66 67 68 68 67 67 64 63 61 62 61 59 60 57 57 60 58 56 56 57 57 60 62 63 61 61 62 64 66 68 68 68 67 65 63 63 62 62 61 60 62 60 60 62 64 65 64 63 63 62 62 62 61 61 60 60 59 59 59 59 58 58 58 57 57 57 57 57 57 57 56 59 59 58 57 57
66 68 66 68 67 66 66 66 65 66 66 67 68 66 65 64 63 62 59 61 60 60 58 58 54 57 54 55 55 57 58 60 61 60 60 63 65 66 68 68 68 67 67 64 63 62 62 60 61 61 61 60 60 63 66 65 64 63 63 62 62 61 61 61 60 59 59 59 58 58 58 58 57 57 57 57 56 56 56 56 56 56 57 55 55
67 65 68 67 66 65 66 66 66 67 67 67 68 66 66 64 63 63 62 61 60 60 56 58 56 54 54 52 55 58 56 59 59 59 59 62 64 66 66 68 68 68 67 67 66 63 62 60 59 61 61 60 60 59 62 66 65 64 64 63 62 62 62 61 60 60 60 59 59 59 59 58 58 57 57 56 56 56 56 56 56 56 56 56 56
68 67 67 67 67 65 66 66 66 66 67 69 68 66 65 62 64 66 66 65 62 60 59 57 56 53 53 52 53 55 54 56 56 58 59 62 62 65 66 65 68 68 67 67 66 65 63 62 60 60 61 60 61 61 59 60 63 65 64 63 63 62 62 61 60 60 60 59 59 59 58 59 58 58 57 57 56 56 56 56 56 55 55 56 55
67 65 65 66 67 67 65 65 66 66 67 67 65 68 66 66 66 65 65 64 62 61 57 60 58 56 56 53 55 53 53 53 57 58 58 60 61 62 66 67 65 68 67 67 66 66 65 66 62 60 60 60 60 60 61 59 59 63 65 64 63 63 62 61 61 60 60 60 60 59 59 59 58 58 58 57 56 56 56 55 56 55 55 55 55
65 65 65 65 66 66 65 67 66 67 67 68 67 66 66 66 66 65 64 64 63 61 59 59 57 57 57 55 56 57 56 53 56 58 60 61 61 64 62 62 68 66 65 67 67 67 67 65 63 62 60 60 60 60 59 60 58 59 64 65 64 64 63 62 61 61 60 60 60 59 60 59 58 58 58 57 57 56 56 56 56 55 55 55 55
65 66 66 65 66 66 66 67 66 67 66 66 66 66 67 65 65 64 64 63 62 60 60 60 59 57 59 59 56 54 57 56 56 57 57 61 64 63 64 61 61 66 65 66 67 66 66 66 65 64 63 61 61 60 60 59 60 60 59 66 64 64 63 63 62 62 61 61 60 60 60 59 59 59 58 58 57 57 57 56 56 55 55 55 55
65 65 66 66 65 65 65 66 65 65 66 67 66 65 65 66 66 66 63 61 60 59 60 60 60 60 60 60 60 59 58 57 58 55 56 59 59 63 64 63 64 62 64 67 66 65 66 66 67 66 65 64 63 62 60 60 60 60 59 64 64 65 64 64 63 62 62 61 61 60 60 60 60 59 59 58 58 57 57 57 56 55 55 55 55
67 66 67 67 65 66 65 66 65 64 65 66 65 65 65 64 65 65 65 62 58 57 59 61 61 61 60 60 60 60 60 61 61 61 58 60 60 60 62 63 64 64 66 69 64 65 65 66 66 66 67 66 65 63 61 61 61 60 60 62 64 65 64 64 64 63 63 62 62 61 61 61 60 60 59 59 58 58 57 57 57 56 56 55 55
66 66 67 66 65 65 66 66 66 66 65 65 65 66 65 64 63 66 65 64 61 59 60 61 59 59 61 61 61 60 61 61 62 61 60 60 64 64 62 63 64 64 66 67 63 67 66 66 66 66 66 66 66 65 63 63 63 62 61 61 63 64 63 63 64 64 64 63 63 62 61 61 60 60 60 59 59 58 58 57 57 57 56 56 56
65 65 66 65 64 65 65 66 66 65 65 64 65 64 64 65 65 65 65 64 64 64 63 62 62 61 61 62 61 61 61 61 62 62 62 62 63 63 64 63 64 64 65 64 66 66 65 65 64 63 64 65 66 66 64 64 65 66 65 63 62 62 64 64 61 65 64 64 63 62 61 61 61 60 60 60 59 59 58 58 58 58 57 57 56
64 65 66 65 64 64 65 66 66 65 64 63 64 65 64 65 66 65 65 64 63 63 63 63 62 63 62 62 61 60 59 61 63 62 62 63 65 63 63 61 63 64 64 65 67 65 66 65 65 66 66 65 64 65 66 66 66 65 65 64 64 64 62 62 62 62 64 64 64 63 63 62 62 61 60 60 60 59 59 59 58 58 58 57 57
63 63 64 64 65 64 65 65 65 65 64 63 63 63 65 66 65 65 64 63 62 62 61 62 60 60 61 61 63 61 62 62 61 60 61 62 63 63 63 64 64 64 64 65 64 64 65 65 66 65 65 65 64 62 62 63 64 65 65 64 65 65 65 65 64 62 63 64 64 64 63 63 62 61 60 60 60 59 59 59 59 58 58 57 57
62 62 63 63 64 64 64 64 64 64 64 63 63 63 65 65 64 64 63 61 61 62 62 61 59 58 58 58 58 61 63 63 60 57 59 59 62 63 63 63 61 63 64 63 63 61 62 64 65 65 64 65 64 64 64 64 64 63 63 64 65 64 64 64 64 65 64 64 64 64 65 63 63 62 61 61 61 60 60 59 59 59 58 58 58
61 62 62 61 61 62 63 64 65 64 63 63 63 63 63 64 64 62 61 63 62 64 65 62 60 59 61 58 55 55 60 61 62 60 61 61 61 59 59 58 59 60 62 63 62 62 62 62 63 63 64 64 64 65 65 65 65 64 64 65 65 65 65 65 65 65 65 65 65 64 65 64 64 63 63 62 61 61 60 60 59 59 59 59 58
58 57 59 61 61 60 61 61 63 65 63 62 62 62 63 63 63 63 62 60 59 61 63 64 63 61 56 55 57 56 56 56 58 60 61 63 62 59 60 57 58 60 62 62 62 63 63 63 62 63 64 63 63 64 64 65 65 64 64 64 63 64 65 65 65 65 65 65 65 65 66 65 65 64 64 63 62 61 60 60 60 60 59 59 59
60 58 57 60 61 61 60 61 61 63 64 62 62 61 62 63 64 63 61 60 58 60 62 63 63 63 60 56 54 53 53 57 59 60 60 58 59 58 61 60 61 63 61 61 62 62 62 62 63 62 63 64 64 64 65 64 65 66 64 63 63 63 64 65 65 65 65 65 65 65 65 66 65 65 64 63 63 62 61 61 60 60 60 60 59
58 58 57 59 61 61 61 60 61 61 61 63 62 62 63 61 63 63 62 63 61 59 59 62 63 63 63 62 59 57 56 57 58 55 58 59 60 57 59 60 62 62 61 63 65 66 65 65 65 65 65 65 65 65 65 65 66 65 66 64 62 62 62 62 64 65 65 64 65 64 64 64 64 65 65 64 63 63 62 62 61 61 60 60 60
58 58 58 59 60 60 61 61 60 61 60 60 59 59 56 57 60 62 62 62 62 59 59 60 61 61 62 62 62 63 61 58 55 56 54 55 58 58 59 58 60 60 60 60 62 62 63 62 62 62 64 64 64 64 64 64 63 63 62 60 60 58 57 57 60 63 65 65 65 65 65 65 64 65 64 65 64 64 63 63 62 62 61 61 61
57 56 57 57 58 59 60 61 58 57 56 56 57 57 58 58 60 61 60 62 62 60 59 59 58 59 60 60 61 62 61 61 59 56 57 53 53 55 57 58 59 60 61 62 63 64 63 63 63 65 66 62 63 61 62 62 63 62 61 59 59 58 56 55 55 56 60 64 65 65 65 65 64 63 63 63 64 65 64 64 63 63 62 62 62
57 58 57 56 56 57 58 58 58 57 55 55 57 57 59 60 61 60 62 63 63 63 61 60 61 59 60 60 59 59 60 61 60 59 59 51 52 54 54 56 57 57 58 60 61 61 61 61 61 61 61 62 63 63 63 63 63 59 57 57 57 56 56 54 52 52 54 60 63 64 64 64 63 63 63 63 63 63 64 64 63 63 63 63 63
59 58 57 54 56 56 56 57 58 56 55 54 56 57 58 60 62 63 63 62 62 62 62 61 61 61 60 60 59 59 58 57 58 57 57 55 50 50 53 53 52 53 56 57 57 58 57 56 56 55 57 58 59 59 56 54 54 54 53 54 55 55 53 51 49 51 54 56 61 63 63 63 64 64 64 64 64 64 64 64 64 64 64 63 63
56 58 58 55 56 57 57 57 57 56 52 52 55 54 56 58 58 58 60 61 61 62 62 61 61 60 60 59 57 57 56 56 56 56 54 53 50 49 49 48 49 51 52 51 51 49 50 54 53 52 54 55 55 55 53 51 51 52 53 53 53 54 54 51 49 49 51 55 57 61 64 64 64 63 64 64 64 64 64 64 64 64 64 64 64
56 55 56 56 55 56 57 56 55 56 54 56 56 54 55 54 54 55 56 57 58 58 58 60 61 60 60 59 58 58 57 56 54 55 53 51 52 49 45 45 45 45 47 51 47 46 45 45 45 48 49 50 50 50 49 49 50 54 52 52 51 52 53 52 50 49 48 51 55 57 60 62 62 63 63 63 62 62 62 63 64 63 63 64 64
53 53 56 56 55 56 57 55 53 55 57 55 55 55 54 51 52 52 54 54 54 56 54 57 56 55 54 55 52 53 53 53 55 56 54 54 52 47 44 45 48 47 46 46 43 41 42 42 43 43 44 47 47 47 48 50 49 53 51 50 51 50 50 50 50 49 49 48 50 53 56 58 59 59 59 58 58 59 58 57 54 53 55 55 57
54 54 54 52 54 55 55 55 54 53 55 56 56 55 55 48 51 52 53 54 54 54 53 54 55 55 53 49 49 47 48 49 49 51 54 52 50 50 50 48 47 41 41 41 42 39 39 40 41 43 45 46 47 48 50 48 51 52 51 49 49 49 48 48 49 47 46 46 46 49 50 51 54 55 56 55 55 54 53 52 52 51 52 52 53
52 55 54 54 54 54 53 52 52 52 52 54 54 54 54 49 49 53 52 52 52 52 52 53 52 52 52 47 47 46 47 43 45 46 43 50 49 49 47 45 44 43 41 38 39 38 38 38 38 40 43 48 47 48 46 47 49 54 52 49 48 47 47 48 48 47 46 45 44 45 46 47 48 49 50 51 50 51 52 52 51 50 51 52 53
54 55 54 53 52 52 51 50 49 50 50 51 51 51 53 51 49 51 50 48 50 50 49 49 51 51 51 49 46 45 46 43 42 44 44 47 49 48 47 45 41 41 42 41 39 38 36 34 33 36 39 43 44 44 46 44 44 50 52 50 49 47 46 46 46 45 46 45 45 44 44 45 47 47 48 49 49 50 50 50 50 49 49 51 52
54 55 54 52 52 52 51 52 52 51 51 50 50 51 51 50 49 50 50 48 48 48 49 49 51 49 50 50 45 44 45 48 47 47 47 48 47 48 45 43 43 39 40 41 42 39 37 34 27 27 32 37 42 41 41 40 45 48 46 48 48 47 46 46 45 44 44 44 44 43 43 44 45 47 48 47 47 48 48 49 49 49 49 49 50
54 54 54 54 53 52 52 53 53 52 51 49 47 49 50 48 49 48 48 49 48 48 49 48 50 50 50 49 48 46 50 48 48 50 49 47 44 44 43 45 44 41 39 39 43 42 36 34 30 22 25 30 34 39 38 38 47 43 40 43 45 45 46 46 45 44 44 44 43 43 43 43 44 45 46 46 46 47 46 47 48 49 49 49 49
52 54 54 52 53 53 53 52 53 52 52 51 51 49 48 49 49 48 51 49 46 48 49 50 50 49 49 49 48 47 50 50 50 49 49 47 42 38 40 43 46 49 42 39 41 44 43 36 29 27 26 28 27 37 35 33 38 42 42 43 40 47 45 44 45 44 44 44 43 43 44 44 43 44 45 44 45 45 45 46 47 47 47 47 46
52 52 50 50 51 52 51 51 52 52 51 52 51 51 50 49 48 46 48 48 45 46 46 48 44 48 48 47 47 46 47 45 46 46 43 46 46 38 40 41 42 46 44 43 43 42 40 33 31 28 30 34 30 32 36 32 33 43 39 39 39 49 44 41 44 44 44 43 43 43 43 43 43 44 43 43 42 45 44 43 46 46 45 45 46
53 51 50 49 48 50 50 49 50 52 51 52 53 52 51 50 49 47 47 45 43 44 45 45 44 46 42 42 43 45 48 47 45 44 41 40 41 41 40 37 38 43 42 43 41 39 38 38 35 28 34 36 29 32 32 38 41 37 38 39 40 40 37 42 43 44 44 43 43 43 42 42 41 42 41 41 42 42 43 43 44 44 44 43 44
53 50 49 51 50 49 48 48 50 50 51 51 52 52 51 52 53 52 50 47 45 46 48 44 45 44 47 43 41 45 45 43 47 38 38 38 35 33 34 37 34 39 42 40 38 36 36 37 33 30 33 37 29 31 39 41 40 36 30 33 32 31 35 35 39 44 44 44 43 43 43 42 42 41 41 41 42 42 42 42 42 42 42 42 43
54 51 51 52 50 49 48 49 48 49 49 49 52 52 52 52 51 53 53 52 51 50 49 47 42 45 47 47 45 46 47 47 47 46 44 41 36 36 39 37 39 39 36 37 40 39 38 35 37 32 35 36 38 30 32 36 36 33 32 35 31 29 30 35 31 38 44 44 42 42 42 42 42 41 40 41 41 42 42 42 42 42 42 43 43
52 53 52 51 51 51 51 50 50 50 51 52 52 51 51 51 50 51 51 52 52 51 51 48 44 46 47 48 48 48 48 48 46 45 45 44 43 39 41 42 43 41 44 44 42 42 39 37 38 30 35 40 35 33 32 34 36 35 35 36 34 34 36 33 33 31 41 43 44 43 42 43 42 41 40 40 41 42 42 41 42 42 42 43 43
54 54 54 52 52 51 53 51 51 52 52 52 52 53 55 54 53 52 52 51 53 52 52 52 52 51 50 49 48 47 48 48 48 46 45 46 39 40 39 38 39 41 43 41 41 40 42 41 40 38 40 35 34 37 34 34 34 35 36 37 35 36 39 39 35 33 43 43 44 43 42 41 41 41 40 41 41 41 41 41 42 42 43 43 43
54 55 55 54 53 52 52 51 51 51 51 52 53 53 53 55 55 55 55 54 54 53 53 52 51 52 53 51 50 50 48 49 49 48 48 46 41 41 40 35 35 40 43 43 43 43 42 40 43 42 43 39 38 40 36 38 40 38 37 38 37 37 38 41 39 36 37 35 42 43 44 41 43 39 40 42 40 40 41 42 42 42 43 43 42
54 55 55 54 56 54 53 53 53 53 53 54 54 54 54 54 55 55 57 55 54 55 55 54 53 53 53 52 52 52 51 49 51 53 51 48 47 44 42 42 38 42 42 42 42 43 43 43 42 43 42 40 42 40 35 38 38 37 40 39 40 36 40 40 40 37 39 39 38 40 38 38 39 37 38 39 40 40 41 42 42 43 44 42 41
54 53 53 54 56 55 55 55 54 55 56 55 54 53 53 54 55 55 55 56 55 54 56 54 55 54 54 53 53 52 52 51 51 51 50 50 53 50 44 41 43 42 42 42 43 42 43 44 42 40 40 41 41 43 39 39 40 39 38 41 41 40 40 40 40 39 37 38 37 33 38 39 39 39 40 40 40 42 42 42 42 43 43 41 40
56 53 54 54 55 55 55 56 56 57 57 56 55 55 55 55 55 56 57 56 56 56 56 56 56 56 55 55 54 53 53 53 51 51 50 50 51 47 44 43 42 42 42 42 43 41 42 43 43 44 42 42 42 42 41 41 40 40 42 43 41 40 38 38 35 36 36 37 35 32 30 36 35 38 34 35 38 41 41 42 42 42 41 40 40
57 55 55 55 55 55 54 54 56 58 57 57 57 52 52 55 56 55 57 56 55 56 56 56 56 55 55 55 55 54 52 51 49 46 45 46 47 46 46 45 42 42 41 42 42 42 43 42 42 42 42 42 41 43 43 44 44 44 42 42 40 38 39 38 37 37 41 39 38 35 31 34 39 38 37 35 38 42 41 41 41 40 41 40 41
57 56 56 55 55 55 54 54 56 58 58 56 47 47 47 47 55 58 57 57 57 57 57 57 56 56 56 54 56 54 54 51 51 44 43 43 42 39 39 41 44 52 45 43 42 44 42 43 42 42 41 42 43 43 43 41 43 43 41 42 40 39 37 35 33 35 41 40 38 36 34 36 39 37 34 34 36 40 39 40 39 39 40 40 40
58 58 58 57 57 58 58 56 57 58 58 46 42 42 42 43 46 58 58 57 58 58 57 57 56 55 55 56 56 56 54 53 52 50 45 41 39 37 37 37 36 36 38 49 45 43 43 42 41 41 41 41 41 43 41 42 41 41 41 41 39 38 37 35 33 33 35 38 37 36 35 36 35 34 36 36 37 40 40 39 38 39 40 41 40
58 57 56 58 57 57 57 56 56 58 58 40 42 41 42 40 41 47 56 57 56 56 56 55 55 54 55 55 56 56 53 52 50 51 49 45 38 38 38 38 38 37 35 35 37 49 44 42 40 41 42 42 41 42 45 44 42 42 40 37 38 37 37 34 32 31 35 38 37 36 34 35 35 34 35 37 37 40 39 39 39 39 40 40 40
57 57 58 57 57 56 57 56 56 57 56 42 40 40 40 39 39 43 56 55 53 51 52 52 53 52 52 52 51 52 54 53 52 53 50 46 42 40 39 38 39 42 37 36 35 36 39 43 43 42 45 44 42 44 45 44 42 40 38 37 39 36 35 34 37 37 39 39 39 38 35 34 34 34 33 35 37 39 39 38 39 39 39 39 39
55 56 55 55 56 56 56 56 56 57 56 39 39 39 39 39 38 42 55 53 50 50 51 53 53 54 54 54 53 51 51 53 53 52 50 45 43 40 37 40 43 43 45 45 45 45 43 44 43 44 45 45 45 44 43 42 42 41 41 40 39 39 39 40 41 41 39 37 40 40 35 34 36 34 35 35 35 35 36 36 38 39 39 39 40
54 54 55 55 55 56 56 56 57 56 54 38 38 38 38 38 39 56 52 50 48 48 49 52 51 52 53 54 52 51 52 51 44 42 44 44 42 40 42 44 44 44 42 37 37 37 43 45 45 45 44 42 38 41 40 37 36 38 37 36 37 37 36 33 31 33 33 35 37 35 36 34 36 35 34 35 34 34 34 36 36 40 40 41 41
52 52 52 53 53 54 54 55 54 54 55 42 36 37 38 38 44 52 50 47 49 49 50 51 50 51 52 51 52 51 51 50 40 37 38 40 44 43 44 44 44 43 42 40 37 36 36 35 35 35 34 34 34 35 34 34 38 38 33 31 31 33 31 29 31 31 31 33 33 34 34 33 35 34 34 34 34 33 33 34 37 39 40 40 39
47 48 48 47 47 47 47 48 48 48 53 43 35 38 38 39 46 52 47 47 49 49 49 50 49 47 45 44 47 50 50 45 36 36 37 41 45 45 45 45 44 44 44 43 41 39 35 34 34 34 34 34 34 34 35 36 35 36 35 30 33 31 32 32 29 31 32 32 32 35 34 32 34 34 33 33 33 34 34 34 35 38 39 38 38
46 44 41 41 42 43 45 47 47 49 50 45 37 37 38 39 46 54 47 46 49 48 48 47 48 46 44 42 40 44 45 42 36 37 37 41 47 46 46 45 43 43 42 42 41 40 40 40 40 40 40 37 38 38 38 35 36 37 36 35 34 33 31 31 31 31 31 32 33 36 32 32 33 32 32 31 31 31 33 33 35 36 36 35 35